Regional Weather Roundup
Issued by NWS

Home | Current Version | Previous Version | Text Only | Print | Product List | Glossary Off
Versions: 1 2 3 4 5 6 7 8 9 10 11 12 13 14 15 16 17 18 19 20 21 22 23 24 25 26 27 28 29 30 31 32 33 34 35 36 37 38 39 40 41 42 43 44 45 46 47 48 49 50

000
ASUS43 KBIS 231910
RWRND

NORTH DAKOTA REGIONAL WEATHER ROUNDUP
NATIONAL WEATHER SERVICE BISMARCK ND
200 PM CDT SAT AUG 23 2014

NOTE: "FAIR" INDICATES FEW OR NO CLOUDS BELOW 12,000 FEET WITH NO
SIGNIFICANT WEATHER AND/OR OBSTRUCTIONS TO VISIBILITY.


NDZ001>003-009>011-017-232000-
NORTHWEST NORTH DAKOTA

CITY           SKY/WX    TMP DP  RH WIND       PRES   REMARKS
WILLISTON      RAIN      56  54  93 NE15G22   30.01F
MINOT          LGT RAIN  57  55  93 N10       30.02F FOG
MINOT AFB      LGT RAIN  57  57 100 NE13      30.02F
$$

NDZ018>021-031>035-040>046-232000-
SOUTHWEST NORTH DAKOTA

CITY           SKY/WX    TMP DP  RH WIND       PRES   REMARKS
BISMARCK       RAIN      62  61  96 E17       29.90S FOG
DICKINSON      RAIN      57  56  96 NE20      29.89F FOG
GARRISON         N/A     58  57  97 NE14G22   29.97F
HETTINGER ARPT LGT RAIN  59  57  93 NE20G28   29.86F
$$

NDZ004>008-012>016-024-026-027-054-232000-
NORTHEAST NORTH DAKOTA

CITY           SKY/WX    TMP DP  RH WIND       PRES   REMARKS
GRAND FORKS    CLOUDY    72  67  84 N8        29.97F
GRND FRKS AFB  CLOUDY    67  67 100 N9        29.99F
DEVILS LAKE    CLOUDY    63  57  82 E20       29.98F
$$

NDZ022-023-025-028>030-036>039-047>053-232000-
SOUTHEAST NORTH DAKOTA

CITY           SKY/WX    TMP DP  RH WIND       PRES   REMARKS
FARGO          LGT RAIN  73  68  84 E10       29.94F
JAMESTOWN      CLOUDY    66  64  93 E14G20    29.92F
$$



USA.gov is the U.S. government's official web portal to all federal, state and local government web resources and services.